Blue Star Naxos — SZUI — position and weather

sailwx.info

Track history (hours):
 
Tides and Currents Weather Stations Pressure Air Temp Water Temp Dewpoint Dewpoint Depression Visibility Wind Speed Wind Dir Waves Ship Positions

Blue Star Naxos

Last reported at 2014-Oct-21 21:33 UTC. Time now 2014-Oct-21 21:40 UTC.
Position N 37°06' E 025°22'.

Length 124 m; draft 5 m.

Type: Passenger vessel. MMSI: 239923000.

Date/timePositionNaut miles runAvg speedWind from/ knotsBaromVisibWave heightAir tempDewpointWater temp
2014-Oct-21 21:33N 37°06' E 025°22'16 8.1
2014-Oct-21 19:33N 37°14' E 025°04'1411.3
2014-Oct-21 18:21N 37°26' E 024°57'1418.1
2014-Oct-21 17:33N 37°31' E 024°40'2221.7
2014-Oct-21 16:33N 37°32' E 024°13'2222.2
2014-Oct-21 15:33N 37°39' E 023°47'1919.0
2014-Oct-21 14:34N 37°57' E 023°38'0 0.4
2014-Oct-21 13:31N 37°57' E 023°38'0 0.0
2014-Oct-21 12:33N 37°57' E 023°38'8 8.3
2014-Oct-21 11:33N 37°49' E 023°41'5222.0
2014-Oct-21 09:10N 37°15' E 024°32'1422.2
2014-Oct-21 08:33N 37°11' E 024°48'1815.6
2014-Oct-21 07:26N 37°05' E 025°09'1011.8
2014-Oct-21 06:34N 37°07' E 025°22'1111.1
2014-Oct-21 05:33N 37°13' E 025°33'1818.0
2014-Oct-21 04:33N 37°01' E 025°51'1211.5
2014-Oct-21 03:29N 36°56' E 026°04'2021.8
2014-Oct-21 02:33N 36°39' E 026°18'5 2.4
2014-Oct-21 00:33N 36°43' E 026°15'1817.5
2014-Oct-20 23:34N 36°58' E 026°05'8 7.7
2014-Oct-20 22:33N 36°55' E 025°57'1817.7
2014-Oct-20 21:33N 37°08' E 025°42'1615.8
2014-Oct-20 20:33N 37°06' E 025°22'18 8.8
2014-Oct-20 18:33N 37°08' E 025°00'2222.1
2014-Oct-20 17:33N 37°14' E 024°34'4722.0
2014-Oct-20 15:25N 37°39' E 023°44'1820.4
2014-Oct-20 14:33N 37°56' E 023°38'1 0.6
2014-Oct-20 13:33N 37°57' E 023°38'0 0.0
2014-Oct-20 12:33N 37°57' E 023°38'1110.8
2014-Oct-20 11:33N 37°46' E 023°42'4921.8
2014-Oct-20 09:19N 37°16' E 024°30'1722.0
2014-Oct-20 08:33N 37°11' E 024°51'1510.8
2014-Oct-20 07:10N 37°07' E 025°09'1117.5
2014-Oct-20 06:34N 37°06' E 025°22'8 7.4
2014-Oct-20 05:33N 36°59' E 025°21'1110.6
2014-Oct-20 04:33N 36°52' E 025°31'1010.3
2014-Oct-20 03:33N 36°54' E 025°43'4 0.9
2014-Oct-19 23:32N 36°55' E 025°39'8 8.1
2014-Oct-19 22:33N 36°52' E 025°30'1312.9
2014-Oct-19 21:33N 37°01' E 025°19'10 9.6
2014-Oct-19 20:33N 37°10' E 025°15'8 7.2
2014-Oct-19 19:26N 37°11' E 025°05'1718.0
2014-Oct-19 18:31N 37°26' E 024°57'1515.2
2014-Oct-19 17:33N 37°32' E 024°40'2121.2
2014-Oct-19 16:33N 37°31' E 024°13'2422.2
2014-Oct-19 15:29N 37°39' E 023°45'1919.9
2014-Oct-19 14:33N 37°57' E 023°38'0 0.2
2014-Oct-19 13:33N 37°57' E 023°38'0 0.0
2014-Oct-19 12:33N 37°57' E 023°38'1110.6
2014-Oct-19 11:33N 37°47' E 023°42'5121.6
2014-Oct-19 09:12N 37°15' E 024°33'1422.1
2014-Oct-19 08:33N 37°11' E 024°50'1615.3
2014-Oct-19 07:30N 37°05' E 025°09'1111.3
2014-Oct-19 06:34N 37°06' E 025°22'1414.3
2014-Oct-19 05:33N 36°53' E 025°16'2121.1
2014-Oct-19 04:33N 36°32' E 025°20'1010.2
2014-Oct-19 03:33N 36°23' E 025°26'0 0.0
2014-Oct-19 02:29N 36°23' E 025°26'0 0.0
2014-Oct-19 01:33N 36°23' E 025°26'0 0.0
2014-Oct-19 00:32N 36°23' E 025°26'0 0.0
2014-Oct-18 23:31N 36°23' E 025°26'0 0.1
2014-Oct-18 22:33N 36°23' E 025°26'1918.6
2014-Oct-18 21:34N 36°42' E 025°25'2222.3
2014-Oct-18 20:33N 37°03' E 025°18'8 7.4
2014-Oct-18 19:32N 37°10' E 025°13'9 9.4
2014-Oct-18 18:33N 37°08' E 025°02'2322.5
2014-Oct-18 17:33N 37°14' E 024°35'2221.9
2014-Oct-18 16:33N 37°24' E 024°10'2422.6
2014-Oct-18 15:30N 37°38' E 023°46'1920.5
2014-Oct-18 14:33N 37°56' E 023°38'1 0.5
2014-Oct-18 13:33N 37°57' E 023°38'0 0.0
2014-Oct-18 12:33N 37°57' E 023°38'10 9.8
2014-Oct-18 11:33N 37°47' E 023°42'2521.8
2014-Oct-18 10:24N 37°29' E 024°04'2621.8
2014-Oct-18 09:13N 37°15' E 024°31'1522.4
2014-Oct-18 08:33N 37°10' E 024°49'1715.1
2014-Oct-18 07:27N 37°05' E 025°09'1011.5
2014-Oct-18 06:33N 37°07' E 025°22'6 6.2
2014-Oct-18 05:34N 37°01' E 025°19'1312.7
2014-Oct-18 04:33N 36°52' E 025°31'10 9.7
2014-Oct-18 03:33N 36°55' E 025°42'9 2.0
2014-Oct-17 23:14N 36°50' E 025°51'1419.5
2014-Oct-17 22:32N 36°56' E 025°36'7 6.8
2014-Oct-17 21:28N 36°52' E 025°28'1617.4
2014-Oct-17 20:33N 37°06' E 025°20'8 8.2
2014-Oct-17 19:33N 37°08' E 025°10'8 7.5
2014-Oct-17 18:33N 37°08' E 025°00'2222.2
2014-Oct-17 17:33N 37°14' E 024°33'2221.8
2014-Oct-17 16:33N 37°25' E 024°09'2222.3
2014-Oct-17 15:32N 37°38' E 023°46'2020.3
2014-Oct-17 14:33N 37°56' E 023°38'1 0.6
2014-Oct-17 13:33N 37°57' E 023°38'0 0.0
2014-Oct-17 12:33N 37°57' E 023°38'1110.5
2014-Oct-17 11:33N 37°47' E 023°42'5221.7
2014-Oct-17 09:11N 37°14' E 024°33'1422.0
2014-Oct-17 08:33N 37°10' E 024°49'1615.7
2014-Oct-17 07:30N 37°05' E 025°09'1010.6
2014-Oct-17 06:33N 37°07' E 025°21'1111.4
2014-Oct-17 05:33N 37°13' E 025°34'1716.9
2014-Oct-17 04:33N 37°02' E 025°50'1111.2
2014-Oct-17 03:33N 36°57' E 026°02'2121.7
2014-Oct-17 02:34N 36°39' E 026°18'2 2.2
2014-Oct-17 01:33N 36°37' E 026°19'2321.7
2014-Oct-17 00:29N 36°57' E 026°04'6 6.0
2014-Oct-16 23:33N 36°54' E 025°58'1716.8
2014-Oct-16 22:34N 37°07' E 025°45'1918.5
2014-Oct-16 21:33N 37°07' E 025°22'11 9.9
2014-Oct-16 20:27N 37°07' E 025°08'10 9.2
2014-Oct-16 19:22N 37°16' E 025°03'1213.5
2014-Oct-16 18:30N 37°26' E 024°57'1314.2
2014-Oct-16 17:33N 37°31' E 024°41'2222.0
2014-Oct-16 16:33N 37°31' E 024°13'2222.2
2014-Oct-16 15:33N 37°39' E 023°46'1919.2
2014-Oct-16 14:34N 37°56' E 023°38'0 0.5
2014-Oct-16 13:33N 37°57' E 023°38'0 0.0
2014-Oct-16 12:33N 37°57' E 023°38'9 9.0
2014-Oct-16 11:33N 37°48' E 023°41'2222.5
2014-Oct-16 10:34N 37°32' E 024°01'2722.2
2014-Oct-16 09:21N 37°16' E 024°28'1822.4
2014-Oct-16 08:33N 37°10' E 024°49'1615.6
2014-Oct-16 07:30N 37°05' E 025°09'1111.2
2014-Oct-16 06:34N 37°06' E 025°22'10 9.5
2014-Oct-16 05:32N 37°13' E 025°31'1717.7
2014-Oct-16 04:33N 37°03' E 025°49'2215.1
2014-Oct-16 03:05N 36°49' E 026°11'1222.9
2014-Oct-16 02:33N 36°38' E 026°18'4 2.0
2014-Oct-16 00:28N 36°34' E 026°21'1819.6
2014-Oct-15 23:33N 36°50' E 026°09'1010.2
2014-Oct-15 22:33N 36°54' E 025°58'1717.5
2014-Oct-15 21:33N 37°07' E 025°44'1717.2
2014-Oct-15 20:33N 37°06' E 025°22'9 9.1
2014-Oct-15 19:33N 37°09' E 025°11'8 8.3
2014-Oct-15 18:33N 37°08' E 025°01'2322.6
2014-Oct-15 17:33N 37°14' E 024°34'2222.3
2014-Oct-15 16:33N 37°24' E 024°09'2222.2
2014-Oct-15 15:33N 37°38' E 023°46'2020.0
2014-Oct-15 14:33N 37°56' E 023°38'1 0.6
2014-Oct-15 13:33N 37°57' E 023°38'0 0.0
2014-Oct-15 12:33N 37°57' E 023°38'9 8.8
2014-Oct-15 11:33N 37°48' E 023°41'4522.2
2014-Oct-15 09:31N 37°17' E 024°23'2122.4
2014-Oct-15 08:33N 37°11' E 024°49'1714.2
2014-Oct-15 07:22N 37°05' E 025°09'1012.9
2014-Oct-15 06:33N 37°06' E 025°22'7 6.5
2014-Oct-15 05:33N 37°00' E 025°20'1211.8
2014-Oct-15 04:33N 36°52' E 025°31'10 9.5
2014-Oct-15 03:33N 36°55' E 025°42'9 2.7
2014-Oct-15 00:09N 36°50' E 025°52'1119.3
2014-Oct-14 23:33N 36°55' E 025°39'9 8.8
2014-Oct-14 22:33N 36°52' E 025°29'1515.5
2014-Oct-14 21:33N 37°05' E 025°19'6 5.6
2014-Oct-14 20:33N 37°10' E 025°15'8 7.6
2014-Oct-14 19:29N 37°11' E 025°05'1717.9
2014-Oct-14 18:31N 37°26' E 024°57'1414.1
2014-Oct-14 17:33N 37°32' E 024°41'2221.9
2014-Oct-14 16:32N 37°32' E 024°13'2422.5
2014-Oct-14 15:27N 37°40' E 023°44'1819.5
2014-Oct-14 14:33N 37°57' E 023°38'0 0.4
2014-Oct-14 13:33N 37°57' E 023°38'0 0.0
2014-Oct-14 12:33N 37°57' E 023°38'9 8.6
2014-Oct-14 11:34N 37°48' E 023°41'5122.0
2014-Oct-14 09:15N 37°16' E 024°30'1522.4
2014-Oct-14 08:33N 37°11' E 024°49'1616.2
2014-Oct-14 07:33N 37°08' E 025°09'1110.8
2014-Oct-14 06:33N 37°06' E 025°22'2019.9
2014-Oct-14 05:33N 37°05' E 025°47'4 4.5
2014-Oct-14 04:33N 37°01' E 025°51'1913.7
2014-Oct-14 03:08N 36°49' E 026°10'1422.4
2014-Oct-14 02:31N 36°37' E 026°19'2 0.8
2014-Oct-14 00:33N 36°39' E 026°18'2221.6
2014-Oct-13 23:33N 36°57' E 026°02'9 9.0
2014-Oct-13 22:33N 36°60' E 025°52'1815.9
2014-Oct-13 21:26N 37°12' E 025°36'1213.4
2014-Oct-13 20:33N 37°06' E 025°22'11 7.5
2014-Oct-13 19:09N 37°05' E 025°09'813.9
2014-Oct-13 18:33N 37°08' E 024°59'2222.5
2014-Oct-13 17:33N 37°15' E 024°32'4522.1
2014-Oct-13 15:32N 37°39' E 023°45'1919.3
2014-Oct-13 14:34N 37°57' E 023°38'0 0.2
2014-Oct-13 13:34N 37°57' E 023°38'0 0.0
2014-Oct-13 12:33N 37°57' E 023°38'9 8.6
2014-Oct-13 11:32N 37°48' E 023°41'5322.2
2014-Oct-13 09:10N 37°15' E 024°32'1422.5
2014-Oct-13 08:33N 37°11' E 024°49'1714.1
2014-Oct-13 07:21N 37°05' E 025°09'1013.1
2014-Oct-13 06:33N 37°06' E 025°22'6 6.1
2014-Oct-13 05:34N 37°01' E 025°19'1212.1
2014-Oct-13 04:32N 36°52' E 025°31'10 9.4
2014-Oct-13 03:30N 36°54' E 025°42'9 6.6
2014-Oct-13 02:10N 36°50' E 025°52'7 2.5
2014-Oct-12 23:33N 36°53' E 025°44'1111.0
2014-Oct-12 22:33N 36°52' E 025°31'1111.3
2014-Oct-12 21:33N 36°60' E 025°20'1110.8
2014-Oct-12 20:33N 37°10' E 025°16'8 8.5
2014-Oct-12 19:33N 37°10' E 025°05'1818.1
2014-Oct-12 18:33N 37°26' E 024°57'1414.0
2014-Oct-12 17:33N 37°31' E 024°40'2322.1
2014-Oct-12 16:32N 37°32' E 024°12'2322.7
2014-Oct-12 15:32N 37°39' E 023°44'1818.7
2014-Oct-12 14:34N 37°56' E 023°38'0 0.4
2014-Oct-12 13:33N 37°57' E 023°38'0 0.0
2014-Oct-12 12:33N 37°57' E 023°38'9 8.7
2014-Oct-12 11:33N 37°48' E 023°41'5122.3
2014-Oct-12 09:17N 37°15' E 024°30'1622.3
2014-Oct-12 08:33N 37°11' E 024°49'1511.5
2014-Oct-12 07:14N 37°06' E 025°08'1217.3
2014-Oct-12 06:33N 37°06' E 025°22'1212.2
2014-Oct-12 05:33N 36°54' E 025°21'2222.0
2014-Oct-12 04:34N 36°32' E 025°22'9 9.4
2014-Oct-12 03:33N 36°23' E 025°26'0 0.0
2014-Oct-12 02:33N 36°23' E 025°26'0 0.0
2014-Oct-12 01:33N 36°23' E 025°26'0 0.0
2014-Oct-12 00:33N 36°23' E 025°26'0 0.0
2014-Oct-11 23:32N 36°23' E 025°26'0 0.0
2014-Oct-11 22:33N 36°23' E 025°26'1717.0
2014-Oct-11 21:33N 36°40' E 025°24'  
Track history (hours):
 
Tides and Currents Weather Stations Pressure Air Temp Water Temp Dewpoint Dewpoint Depression Visibility Wind Speed Wind Dir Waves Ship Positions

Blue Star Naxos

Last reported at 2014-Oct-21 21:33 UTC. Time now 2014-Oct-21 21:40 UTC.
Position N 37°06' E 025°22'.

Length 124 m; draft 5 m.

Type: Passenger vessel. MMSI: 239923000.

Date/timePositionNaut miles runAvg speedWind from/ knotsBaromVisibWave heightAir tempDewpointWater temp
2014-Oct-21 21:33N 37°06' E 025°22'16 8.1
2014-Oct-21 19:33N 37°14' E 025°04'1411.3
2014-Oct-21 18:21N 37°26' E 024°57'1418.1
2014-Oct-21 17:33N 37°31' E 024°40'2221.7
2014-Oct-21 16:33N 37°32' E 024°13'2222.2
2014-Oct-21 15:33N 37°39' E 023°47'1919.0
2014-Oct-21 14:34N 37°57' E 023°38'0 0.4
2014-Oct-21 13:31N 37°57' E 023°38'0 0.0
2014-Oct-21 12:33N 37°57' E 023°38'8 8.3
2014-Oct-21 11:33N 37°49' E 023°41'5222.0
2014-Oct-21 09:10N 37°15' E 024°32'1422.2
2014-Oct-21 08:33N 37°11' E 024°48'1815.6
2014-Oct-21 07:26N 37°05' E 025°09'1011.8
2014-Oct-21 06:34N 37°07' E 025°22'1111.1
2014-Oct-21 05:33N 37°13' E 025°33'1818.0
2014-Oct-21 04:33N 37°01' E 025°51'1211.5
2014-Oct-21 03:29N 36°56' E 026°04'2021.8
2014-Oct-21 02:33N 36°39' E 026°18'5 2.4
2014-Oct-21 00:33N 36°43' E 026°15'1817.5
2014-Oct-20 23:34N 36°58' E 026°05'8 7.7
2014-Oct-20 22:33N 36°55' E 025°57'1817.7
2014-Oct-20 21:33N 37°08' E 025°42'1615.8
2014-Oct-20 20:33N 37°06' E 025°22'18 8.8
2014-Oct-20 18:33N 37°08' E 025°00'2222.1
2014-Oct-20 17:33N 37°14' E 024°34'4722.0
2014-Oct-20 15:25N 37°39' E 023°44'1820.4
2014-Oct-20 14:33N 37°56' E 023°38'1 0.6
2014-Oct-20 13:33N 37°57' E 023°38'0 0.0
2014-Oct-20 12:33N 37°57' E 023°38'1110.8
2014-Oct-20 11:33N 37°46' E 023°42'4921.8
2014-Oct-20 09:19N 37°16' E 024°30'1722.0
2014-Oct-20 08:33N 37°11' E 024°51'1510.8
2014-Oct-20 07:10N 37°07' E 025°09'1117.5
2014-Oct-20 06:34N 37°06' E 025°22'8 7.4
2014-Oct-20 05:33N 36°59' E 025°21'1110.6
2014-Oct-20 04:33N 36°52' E 025°31'1010.3
2014-Oct-20 03:33N 36°54' E 025°43'4 0.9
2014-Oct-19 23:32N 36°55' E 025°39'8 8.1
2014-Oct-19 22:33N 36°52' E 025°30'1312.9
2014-Oct-19 21:33N 37°01' E 025°19'10 9.6
2014-Oct-19 20:33N 37°10' E 025°15'8 7.2
2014-Oct-19 19:26N 37°11' E 025°05'1718.0
2014-Oct-19 18:31N 37°26' E 024°57'1515.2
2014-Oct-19 17:33N 37°32' E 024°40'2121.2
2014-Oct-19 16:33N 37°31' E 024°13'2422.2
2014-Oct-19 15:29N 37°39' E 023°45'1919.9
2014-Oct-19 14:33N 37°57' E 023°38'0 0.2
2014-Oct-19 13:33N 37°57' E 023°38'0 0.0
2014-Oct-19 12:33N 37°57' E 023°38'1110.6
2014-Oct-19 11:33N 37°47' E 023°42'5121.6
2014-Oct-19 09:12N 37°15' E 024°33'1422.1
2014-Oct-19 08:33N 37°11' E 024°50'1615.3
2014-Oct-19 07:30N 37°05' E 025°09'1111.3
2014-Oct-19 06:34N 37°06' E 025°22'1414.3
2014-Oct-19 05:33N 36°53' E 025°16'2121.1
2014-Oct-19 04:33N 36°32' E 025°20'1010.2
2014-Oct-19 03:33N 36°23' E 025°26'0 0.0
2014-Oct-19 02:29N 36°23' E 025°26'0 0.0
2014-Oct-19 01:33N 36°23' E 025°26'0 0.0
2014-Oct-19 00:32N 36°23' E 025°26'0 0.0
2014-Oct-18 23:31N 36°23' E 025°26'0 0.1
2014-Oct-18 22:33N 36°23' E 025°26'1918.6
2014-Oct-18 21:34N 36°42' E 025°25'2222.3
2014-Oct-18 20:33N 37°03' E 025°18'8 7.4
2014-Oct-18 19:32N 37°10' E 025°13'9 9.4
2014-Oct-18 18:33N 37°08' E 025°02'2322.5
2014-Oct-18 17:33N 37°14' E 024°35'2221.9
2014-Oct-18 16:33N 37°24' E 024°10'2422.6
2014-Oct-18 15:30N 37°38' E 023°46'1920.5
2014-Oct-18 14:33N 37°56' E 023°38'1 0.5
2014-Oct-18 13:33N 37°57' E 023°38'0 0.0
2014-Oct-18 12:33N 37°57' E 023°38'10 9.8
2014-Oct-18 11:33N 37°47' E 023°42'2521.8
2014-Oct-18 10:24N 37°29' E 024°04'2621.8
2014-Oct-18 09:13N 37°15' E 024°31'1522.4
2014-Oct-18 08:33N 37°10' E 024°49'1715.1
2014-Oct-18 07:27N 37°05' E 025°09'1011.5
2014-Oct-18 06:33N 37°07' E 025°22'6 6.2
2014-Oct-18 05:34N 37°01' E 025°19'1312.7
2014-Oct-18 04:33N 36°52' E 025°31'10 9.7
2014-Oct-18 03:33N 36°55' E 025°42'9 2.0
2014-Oct-17 23:14N 36°50' E 025°51'1419.5
2014-Oct-17 22:32N 36°56' E 025°36'7 6.8
2014-Oct-17 21:28N 36°52' E 025°28'1617.4
2014-Oct-17 20:33N 37°06' E 025°20'8 8.2
2014-Oct-17 19:33N 37°08' E 025°10'8 7.5
2014-Oct-17 18:33N 37°08' E 025°00'2222.2
2014-Oct-17 17:33N 37°14' E 024°33'2221.8
2014-Oct-17 16:33N 37°25' E 024°09'2222.3
2014-Oct-17 15:32N 37°38' E 023°46'2020.3
2014-Oct-17 14:33N 37°56' E 023°38'1 0.6
2014-Oct-17 13:33N 37°57' E 023°38'0 0.0
2014-Oct-17 12:33N 37°57' E 023°38'1110.5
2014-Oct-17 11:33N 37°47' E 023°42'5221.7
2014-Oct-17 09:11N 37°14' E 024°33'1422.0
2014-Oct-17 08:33N 37°10' E 024°49'1615.7
2014-Oct-17 07:30N 37°05' E 025°09'1010.6
2014-Oct-17 06:33N 37°07' E 025°21'1111.4
2014-Oct-17 05:33N 37°13' E 025°34'1716.9
2014-Oct-17 04:33N 37°02' E 025°50'1111.2
2014-Oct-17 03:33N 36°57' E 026°02'2121.7
2014-Oct-17 02:34N 36°39' E 026°18'2 2.2
2014-Oct-17 01:33N 36°37' E 026°19'2321.7
2014-Oct-17 00:29N 36°57' E 026°04'6 6.0
2014-Oct-16 23:33N 36°54' E 025°58'1716.8
2014-Oct-16 22:34N 37°07' E 025°45'1918.5
2014-Oct-16 21:33N 37°07' E 025°22'11 9.9
2014-Oct-16 20:27N 37°07' E 025°08'10 9.2
2014-Oct-16 19:22N 37°16' E 025°03'1213.5
2014-Oct-16 18:30N 37°26' E 024°57'1314.2
2014-Oct-16 17:33N 37°31' E 024°41'2222.0
2014-Oct-16 16:33N 37°31' E 024°13'2222.2
2014-Oct-16 15:33N 37°39' E 023°46'1919.2
2014-Oct-16 14:34N 37°56' E 023°38'0 0.5
2014-Oct-16 13:33N 37°57' E 023°38'0 0.0
2014-Oct-16 12:33N 37°57' E 023°38'9 9.0
2014-Oct-16 11:33N 37°48' E 023°41'2222.5
2014-Oct-16 10:34N 37°32' E 024°01'2722.2
2014-Oct-16 09:21N 37°16' E 024°28'1822.4
2014-Oct-16 08:33N 37°10' E 024°49'1615.6
2014-Oct-16 07:30N 37°05' E 025°09'1111.2
2014-Oct-16 06:34N 37°06' E 025°22'10 9.5
2014-Oct-16 05:32N 37°13' E 025°31'1717.7
2014-Oct-16 04:33N 37°03' E 025°49'2215.1
2014-Oct-16 03:05N 36°49' E 026°11'1222.9
2014-Oct-16 02:33N 36°38' E 026°18'4 2.0
2014-Oct-16 00:28N 36°34' E 026°21'1819.6
2014-Oct-15 23:33N 36°50' E 026°09'1010.2
2014-Oct-15 22:33N 36°54' E 025°58'1717.5
2014-Oct-15 21:33N 37°07' E 025°44'1717.2
2014-Oct-15 20:33N 37°06' E 025°22'9 9.1
2014-Oct-15 19:33N 37°09' E 025°11'8 8.3
2014-Oct-15 18:33N 37°08' E 025°01'2322.6
2014-Oct-15 17:33N 37°14' E 024°34'2222.3
2014-Oct-15 16:33N 37°24' E 024°09'2222.2
2014-Oct-15 15:33N 37°38' E 023°46'2020.0
2014-Oct-15 14:33N 37°56' E 023°38'1 0.6
2014-Oct-15 13:33N 37°57' E 023°38'0 0.0
2014-Oct-15 12:33N 37°57' E 023°38'9 8.8
2014-Oct-15 11:33N 37°48' E 023°41'4522.2
2014-Oct-15 09:31N 37°17' E 024°23'2122.4
2014-Oct-15 08:33N 37°11' E 024°49'1714.2
2014-Oct-15 07:22N 37°05' E 025°09'1012.9
2014-Oct-15 06:33N 37°06' E 025°22'7 6.5
2014-Oct-15 05:33N 37°00' E 025°20'1211.8
2014-Oct-15 04:33N 36°52' E 025°31'10 9.5
2014-Oct-15 03:33N 36°55' E 025°42'9 2.7
2014-Oct-15 00:09N 36°50' E 025°52'1119.3
2014-Oct-14 23:33N 36°55' E 025°39'9 8.8
2014-Oct-14 22:33N 36°52' E 025°29'1515.5
2014-Oct-14 21:33N 37°05' E 025°19'6 5.6
2014-Oct-14 20:33N 37°10' E 025°15'8 7.6
2014-Oct-14 19:29N 37°11' E 025°05'1717.9
2014-Oct-14 18:31N 37°26' E 024°57'1414.1
2014-Oct-14 17:33N 37°32' E 024°41'2221.9
2014-Oct-14 16:32N 37°32' E 024°13'2422.5
2014-Oct-14 15:27N 37°40' E 023°44'1819.5
2014-Oct-14 14:33N 37°57' E 023°38'0 0.4
2014-Oct-14 13:33N 37°57' E 023°38'0 0.0
2014-Oct-14 12:33N 37°57' E 023°38'9 8.6
2014-Oct-14 11:34N 37°48' E 023°41'5122.0
2014-Oct-14 09:15N 37°16' E 024°30'1522.4
2014-Oct-14 08:33N 37°11' E 024°49'1616.2
2014-Oct-14 07:33N 37°08' E 025°09'1110.8
2014-Oct-14 06:33N 37°06' E 025°22'2019.9
2014-Oct-14 05:33N 37°05' E 025°47'4 4.5
2014-Oct-14 04:33N 37°01' E 025°51'1913.7
2014-Oct-14 03:08N 36°49' E 026°10'1422.4
2014-Oct-14 02:31N 36°37' E 026°19'2 0.8
2014-Oct-14 00:33N 36°39' E 026°18'2221.6
2014-Oct-13 23:33N 36°57' E 026°02'9 9.0
2014-Oct-13 22:33N 36°60' E 025°52'1815.9
2014-Oct-13 21:26N 37°12' E 025°36'1213.4
2014-Oct-13 20:33N 37°06' E 025°22'11 7.5
2014-Oct-13 19:09N 37°05' E 025°09'813.9
2014-Oct-13 18:33N 37°08' E 024°59'2222.5
2014-Oct-13 17:33N 37°15' E 024°32'4522.1
2014-Oct-13 15:32N 37°39' E 023°45'1919.3
2014-Oct-13 14:34N 37°57' E 023°38'0 0.2
2014-Oct-13 13:34N 37°57' E 023°38'0 0.0
2014-Oct-13 12:33N 37°57' E 023°38'9 8.6
2014-Oct-13 11:32N 37°48' E 023°41'5322.2
2014-Oct-13 09:10N 37°15' E 024°32'1422.5
2014-Oct-13 08:33N 37°11' E 024°49'1714.1
2014-Oct-13 07:21N 37°05' E 025°09'1013.1
2014-Oct-13 06:33N 37°06' E 025°22'6 6.1
2014-Oct-13 05:34N 37°01' E 025°19'1212.1
2014-Oct-13 04:32N 36°52' E 025°31'10 9.4
2014-Oct-13 03:30N 36°54' E 025°42'9 6.6
2014-Oct-13 02:10N 36°50' E 025°52'7 2.5
2014-Oct-12 23:33N 36°53' E 025°44'1111.0
2014-Oct-12 22:33N 36°52' E 025°31'1111.3
2014-Oct-12 21:33N 36°60' E 025°20'1110.8
2014-Oct-12 20:33N 37°10' E 025°16'8 8.5
2014-Oct-12 19:33N 37°10' E 025°05'1818.1
2014-Oct-12 18:33N 37°26' E 024°57'1414.0
2014-Oct-12 17:33N 37°31' E 024°40'2322.1
2014-Oct-12 16:32N 37°32' E 024°12'2322.7
2014-Oct-12 15:32N 37°39' E 023°44'1818.7
2014-Oct-12 14:34N 37°56' E 023°38'0 0.4
2014-Oct-12 13:33N 37°57' E 023°38'0 0.0
2014-Oct-12 12:33N 37°57' E 023°38'9 8.7
2014-Oct-12 11:33N 37°48' E 023°41'5122.3
2014-Oct-12 09:17N 37°15' E 024°30'1622.3
2014-Oct-12 08:33N 37°11' E 024°49'1511.5
2014-Oct-12 07:14N 37°06' E 025°08'1217.3
2014-Oct-12 06:33N 37°06' E 025°22'1212.2
2014-Oct-12 05:33N 36°54' E 025°21'2222.0
2014-Oct-12 04:34N 36°32' E 025°22'9 9.4
2014-Oct-12 03:33N 36°23' E 025°26'0 0.0
2014-Oct-12 02:33N 36°23' E 025°26'0 0.0
2014-Oct-12 01:33N 36°23' E 025°26'0 0.0
2014-Oct-12 00:33N 36°23' E 025°26'0 0.0
2014-Oct-11 23:32N 36°23' E 025°26'0 0.0
2014-Oct-11 22:33N 36°23' E 025°26'1717.0
2014-Oct-11 21:33N 36°40' E 025°24'  

Dump ship's entire track history